Regional Weather Roundup
Issued by NWS Newport/Morehead, NC

Current Version | Previous Version | Text Only | Print | Product List | Glossary On
Versions: 1 2 3 4 5 6 7 8 9 10 11 12 13 14 15 16 17 18 19 20 21 22 23 24 25 26 27 28 29 30 31 32 33 34 35 36 37 38 39 40 41 42 43 44 45 46 47 48 49 50
000
ASUS42 KMHX 231225
RWRMHX
WEATHER ROUNDUP FOR EASTERN NORTH CAROLINA
NATIONAL WEATHER SERVICE NEWPORT/MOREHEAD CITY NC
800 AM EDT MON OCT 23 2017

NOTE: "FAIR" INDICATES FEW OR NO CLOUDS BELOW 12,000 FEET
WITH NO SIGNIFICANT WEATHER AND/OR OBSTRUCTIONS TO VISIBILITY

NCZ015>017-031-032-045>047-102-103-231300-
NORTH COAST

CITY           SKY/WX    TMP DP  RH WIND       PRES   REMARKS
EDENTON        CLOUDY    65  65 100 CALM      30.22S
ELIZABETH CITY MOCLDY    66  66 100 E3        30.22F
KITTY HAWK     CLOUDY    69  66  92 CALM      30.22S
MANTEO         CLOUDY   N/A N/A N/A SE5       30.24R

$$

NCZ045>047-081-094-103-104-231300-
CENTRAL COAST

CITY           SKY/WX    TMP DP  RH WIND       PRES   REMARKS
FRISCO         PTCLDY    75  65  70 SE8       30.23R

$$

NCZ095-097-098-100-101-231300-
SOUTHERN COAST

CITY           SKY/WX    TMP DP  RH WIND       PRES   REMARKS
BEAUFORT       CLEAR     69  65  86 E6        30.19F
CEDAR ISLAND   NOT AVBL
JACKSONVILLE   PTCLDY    63  63 100 CALM      30.18S
PINEY ISLAND     N/A    N/A N/A N/A SE6       30.20F
WILMINGTON     PTCLDY    74  67  78 SE7       30.16S


$$

NCZ011>013-027>030-043-044-078>080-089-090>093-098-231300-
COASTAL PLAIN

CITY           SKY/WX    TMP DP  RH WIND       PRES   REMARKS
AHOSKIE        CLOUDY    57  57 100 CALM      30.21F FOG
CLINTON        PTCLDY    68  65  90 CALM      30.16F
ELIZABETHTOWN  NOT AVBL
GOLDSBORO      CLOUDY    64  63  94 SE3       30.16F
GREENVILLE     CLOUDY    61  61 100 E3        30.21R
HAVELOCK       CLEAR     60  60 100 E6        30.20F
KENANSVILLE    CLOUDY    66  63  88 CALM      30.18S
KINSTON        PTCLDY    61  61 100 CALM      30.20S
NEW BERN       CLEAR     60  60 100 CALM      30.21S
RICHLANDS      CLEAR     63  62  97 E5        30.18F
ROCKY MOUNT    CLOUDY    61  61 100 CALM      30.19S
WASHINGTON     NOT AVBL
WHITEVILLE     CLOUDY    69  68  97 CALM      30.14F FOG

$$

AMZ130-135-150-152-154-156-158-170-250-252-270-ANZ085-086-088-633-658-670-231300-
MARINE OBSERVATIONS

STATION/POSITION TIME  TEMP    WIND        PRES    WAVE   SWELL
                       AIR SEA DIR/SP/G            HT/PER HT/PER
                 (UTC) (F)     (DEG/KT/KT) (MB)    (FT/S) (FT/S)
CHESAPEAKE LIGHT NOT AVBL
64 E VA BEACH    1150   72 69  180/  4/  4 1024.3    3/ 5   3/ 5
DUCK             1200   71 70  120/  7/  8 1023.2
2 E DUCK         1200      70                N/A     2/ 9
OREGON INLET     1200   71 72  120/  3/  4 1023.6
13E OREGON INLT  1148      73                N/A     3/ 9   2/ 9
HATTERAS CG      1200   76 73  140/  9/ 12 1023.3
DIAMOND BUOY     1150   77 81  170/ 14/ 16 1023.3    3/ 9   2/ 9
CAPE LOOKOUT     1200   75     140/ 10/ 11 1022.2
BEAUFORT LAB     1200   71 72  130/  5/  6 1022.5
30 SE NEW RVR IN 1208   77     160/ 17/ 23 1021.7
30 SE NEW RVR IN NOT AVBL
27 SE WRIGHTSVLE 1208   77 76  140/ 16/ 21 1021.5
5 SE WRIGHTSVLE  1208   76 74  140/ 16/ 21 1021.2
225 S CAPE HAT   1150   77 80  100/ 16/ 19 1022.1    4/ 8   2/ 8
41 SE CHARLESTON 1210   79 79  140/ 21/ 25 1018.9

$$




USA.gov is the U.S. government's official web portal to all federal, state and local government web resources and services.